TimeEST,TemperatureF,Dew PointF,Humidity,Sea Level PressureIn,VisibilityMPH,Wind Direction,Wind SpeedMPH,Gust SpeedMPH,PrecipitationIn,Events,Conditions,WindDirDegrees,DateUTC
12:54 AM,19.9,10.0,65,30.13,10.0,NNW,3.5,-,N/A,,Clear,340,2009-01-22 05:54:00
1:54 AM,18.0,9.0,68,30.15,10.0,NW,3.5,-,N/A,,Clear,320,2009-01-22 06:54:00
2:54 AM,18.0,10.0,71,30.14,10.0,Calm,Calm,-,N/A,,Clear,0,2009-01-22 07:54:00
3:54 AM,24.1,10.0,55,30.13,10.0,North,8.1,-,N/A,,Clear,360,2009-01-22 08:54:00
4:54 AM,24.1,10.0,55,30.14,10.0,North,6.9,-,N/A,,Clear,360,2009-01-22 09:54:00
5:54 AM,19.9,12.0,71,30.16,10.0,Calm,Calm,-,N/A,,Clear,0,2009-01-22 10:54:00
6:54 AM,24.1,10.9,57,30.15,10.0,Calm,Calm,-,N/A,,Clear,0,2009-01-22 11:54:00
7:54 AM,23.0,10.9,60,30.17,10.0,Calm,Calm,-,N/A,,Clear,0,2009-01-22 12:54:00
8:54 AM,28.0,12.0,51,30.18,10.0,North,6.9,-,N/A,,Clear,350,2009-01-22 13:54:00
9:54 AM,34.0,12.9,42,30.17,10.0,North,9.2,-,N/A,,Clear,350,2009-01-22 14:54:00
10:54 AM,37.9,12.9,36,30.17,10.0,NNW,10.4,-,N/A,,Clear,330,2009-01-22 15:54:00
11:54 AM,41.0,12.0,31,30.15,10.0,NNE,4.6,-,N/A,,Clear,30,2009-01-22 16:54:00
12:54 PM,45.0,12.0,26,30.12,10.0,North,3.5,-,N/A,,Clear,360,2009-01-22 17:54:00
1:54 PM,48.0,14.0,26,30.10,10.0,NW,8.1,-,N/A,,Clear,320,2009-01-22 18:54:00
2:54 PM,48.9,15.1,26,30.09,10.0,NNW,8.1,-,N/A,,Clear,340,2009-01-22 19:54:00
3:54 PM,50.0,16.0,26,30.08,10.0,North,5.8,-,N/A,,Clear,350,2009-01-22 20:54:00
4:54 PM,48.9,18.0,29,30.09,10.0,North,6.9,-,N/A,,Clear,350,2009-01-22 21:54:00
5:54 PM,41.0,19.0,41,30.11,10.0,NNW,5.8,-,N/A,,Clear,340,2009-01-22 22:54:00
6:54 PM,37.9,19.9,48,30.12,10.0,North,4.6,-,N/A,,Clear,350,2009-01-22 23:54:00
7:54 PM,34.0,19.9,56,30.14,10.0,Calm,Calm,-,N/A,,Clear,0,2009-01-23 00:54:00
8:54 PM,30.9,19.9,64,30.13,10.0,Calm,Calm,-,N/A,,Clear,0,2009-01-23 01:54:00
9:54 PM,28.9,19.9,69,30.13,10.0,Calm,Calm,-,N/A,,Clear,0,2009-01-23 02:54:00
10:54 PM,28.0,19.0,69,30.13,10.0,Calm,Calm,-,N/A,,Clear,0,2009-01-23 03:54:00
11:54 PM,27.0,19.0,72,30.14,10.0,Calm,Calm,-,N/A,,Clear,0,2009-01-23 04:54:00